TimeCDT,TemperatureF,Dew PointF,Humidity,Sea Level PressureIn,VisibilityMPH,Wind Direction,Wind SpeedMPH,Gust SpeedMPH,PrecipitationIn,Events,Conditions,WindDirDegrees,DateUTC
12:15 AM,49.1,43.7,82,29.72,10.0,WSW,11.5,-,N/A,,Overcast,250,2013-03-11 05:15:00
12:35 AM,49.1,43.9,82,29.73,10.0,WSW,10.4,-,N/A,,Overcast,240,2013-03-11 05:35:00
1:35 AM,47.3,42.4,83,29.73,10.0,West,17.3,23.0,N/A,,Overcast,260,2013-03-11 06:35:00
2:15 AM,46.4,40.1,79,29.73,10.0,West,13.8,19.6,N/A,,Overcast,260,2013-03-11 07:15:00
2:35 AM,45.7,39.9,80,29.73,10.0,West,10.4,-,N/A,,Overcast,260,2013-03-11 07:35:00
2:55 AM,45.0,39.2,80,29.73,10.0,West,16.1,-,N/A,,Overcast,260,2013-03-11 07:55:00
3:15 AM,44.2,39.2,82,29.71,10.0,West,15.0,-,N/A,,Overcast,270,2013-03-11 08:15:00
3:35 AM,43.3,38.5,83,29.70,10.0,West,17.3,26.5,N/A,,Overcast,270,2013-03-11 08:35:00
3:55 AM,42.4,37.8,83,29.73,10.0,WSW,19.6,24.2,N/A,,Overcast,250,2013-03-11 08:55:00
4:15 AM,42.1,37.4,83,29.73,10.0,WSW,12.7,-,N/A,,Overcast,250,2013-03-11 09:15:00
4:35 AM,41.5,36.7,83,29.72,10.0,West,15.0,-,N/A,,Overcast,260,2013-03-11 09:35:00
4:55 AM,40.3,36.0,85,29.73,10.0,West,17.3,24.2,N/A,,Overcast,260,2013-03-11 09:55:00
5:15 AM,39.7,35.2,84,29.73,10.0,West,16.1,-,N/A,,Overcast,260,2013-03-11 10:15:00
5:35 AM,39.4,34.7,83,29.75,10.0,WSW,17.3,20.7,N/A,,Overcast,250,2013-03-11 10:35:00
5:55 AM,39.2,34.3,83,29.76,10.0,WSW,13.8,-,N/A,,Overcast,250,2013-03-11 10:55:00
6:15 AM,39.2,34.2,82,29.76,10.0,West,13.8,-,N/A,,Overcast,260,2013-03-11 11:15:00
6:35 AM,38.5,34.0,84,29.75,10.0,WSW,16.1,21.9,N/A,,Overcast,250,2013-03-11 11:35:00
6:50 AM,-9999,-9999,N/A,29.75,7.0,West,16.1,-,N/A,,Overcast,260,2013-03-11 11:50:00
6:55 AM,38.3,33.8,84,29.75,10.0,West,18.4,-,N/A,,Overcast,260,2013-03-11 11:55:00
7:50 AM,37.4,32.0,81,29.76,7.0,WSW,12.7,-,N/A,,Overcast,250,2013-03-11 12:50:00
8:50 AM,37.4,32.0,81,29.78,5.0,West,13.8,-,N/A,,Overcast,260,2013-03-11 13:50:00
9:50 AM,37.4,33.8,87,29.78,7.0,WSW,13.8,23.0,N/A,,Overcast,250,2013-03-11 14:50:00
10:50 AM,37.4,32.0,81,29.79,7.0,West,16.1,25.3,N/A,,Overcast,270,2013-03-11 15:50:00
11:50 AM,37.4,32.0,81,29.79,10.0,West,16.1,23.0,N/A,,Overcast,260,2013-03-11 16:50:00
12:50 PM,37.4,30.2,75,29.79,10.0,West,23.0,-,N/A,,Overcast,280,2013-03-11 17:50:00
1:50 PM,37.4,30.2,75,29.81,10.0,West,23.0,-,N/A,,Overcast,270,2013-03-11 18:50:00
2:50 PM,37.4,30.2,75,29.81,10.0,West,20.7,-,N/A,,Overcast,260,2013-03-11 19:50:00
3:56 PM,37.4,30.2,75,29.83,10.0,West,25.3,-,N/A,,Overcast,270,2013-03-11 20:56:00
6:50 PM,37.4,30.2,75,29.91,10.0,West,15.0,-,N/A,,Overcast,280,2013-03-11 23:50:00
10:15 PM,37.6,27.1,66,29.96,10.0,West,11.5,-,N/A,,Overcast,280,2013-03-12 03:15:00
10:35 PM,37.4,27.1,66,29.98,10.0,West,10.4,-,N/A,,Overcast,280,2013-03-12 03:35:00
10:55 PM,37.4,27.5,67,29.98,10.0,West,10.4,-,N/A,,Overcast,280,2013-03-12 03:55:00
11:35 PM,37.4,27.0,66,29.98,10.0,West,10.4,-,N/A,,Overcast,280,2013-03-12 04:35:00
11:55 PM,37.0,25.9,64,29.98,10.0,West,9.2,-,N/A,,Overcast,270,2013-03-12 04:55:00